Location: Beaurecueil
(43.5122°N, 5.5450°E)
Time: 06:46:59
(UTC+00:00)

Cosmos 1939 Rocket - Pass Details

Date: 22 January 2021
Orbit: 531 x 585 km, 97.4° (Epoch: 06 March)

Event Time Altitude Azimuth Distance (km) Brightness Sun altitude
Rises 17:34:25 0° 166° (SSE) 2,791 6.5 -10.7°
Reaches altitude 10° 17:36:35 10° 167° (SSE) 1,893 5.6 -11.0°
Maximum altitude 17:40:41 89° 248° (WSW) 584 2.9 -11.7°
Drops below altitude 10° 17:44:48 10° 348° (NNW) 1,886 5.5 -12.5°
Sets 17:46:56 0° 348° (NNW) 2,781 6.4 -12.8°
